Volver al catálogo

STARLINK-30883

ActivoComunicacionesVLEO
NORAD 58252·PAYLOAD·🇺🇸 United States

Lanzado Nov 8, 2023 desde Cape Canaveral Space Force Station

Loading…

Próximos Pases (próximas 24 horas)

TLE

ActualizadoSource: CelesTrak SupGP

Época: Sep 14, 2026, 20:51 UTC

1 58252C 23171Y   26257.86923611 -.00053236  00000+0 -19282-2 0  2575
2 58252  43.0034 296.6583 0001792 268.2195 290.6437 15.27604052    13

Sigue STARLINK-30883 en tiempo real con AllMySat

Download on the App Store